owner,sensor,date,latitude,longitude,vertical_datum,sea_water_temperature,qcFlag 
LUMCON,ioos:station:LUMCON:101:1,2015-10-01T05:00:00Z,29.2533,-90.6633,1.0,28.29,2 
LUMCON,ioos:station:LUMCON:101:1,2015-10-01T05:15:00Z,29.2533,-90.6633,1.0,28.26,2 
LUMCON,ioos:station:LUMCON:101:1,2015-10-01T05:30:00Z,29.2533,-90.6633,1.0,28.24,2 
LUMCON,ioos:station:LUMCON:101:1,2015-10-01T05:45:00Z,29.2533,-90.6633,1.0,28.25,2 
LUMCON,ioos:station:LUMCON:101:1,2015-10-01T06:00:00Z,29.2533,-90.6633,1.0,27.95,2 
LUMCON,ioos:station:LUMCON:101:1,2015-10-01T06:15:00Z,29.2533,-90.6633,1.0,27.81,2 
LUMCON,ioos:station:LUMCON:101:1,2015-10-01T06:30:00Z,29.2533,-90.6633,1.0,27.69,2 
LUMCON,ioos:station:LUMCON:101:1,2015-10-01T06:45:00Z,29.2533,-90.6633,1.0,27.62,2 
LUMCON,ioos:station:LUMCON:101:1,2015-10-01T07:00:00Z,29.2533,-90.6633,1.0,27.45,2 
LUMCON,ioos:station:LUMCON:101:1,2015-10-01T07:15:00Z,29.2533,-90.6633,1.0,27.3,2 
LUMCON,ioos:station:LUMCON:101:1,2015-10-01T07:30:00Z,29.2533,-90.6633,1.0,27.21,2 
LUMCON,ioos:station:LUMCON:101:1,2015-10-01T07:45:00Z,29.2533,-90.6633,1.0,27.13,2 
LUMCON,ioos:station:LUMCON:101:1,2015-10-01T08:00:00Z,29.2533,-90.6633,1.0,27.06,2 
LUMCON,ioos:station:LUMCON:101:1,2015-10-01T08:15:00Z,29.2533,-90.6633,1.0,26.99,2 
LUMCON,ioos:station:LUMCON:101:1,2015-10-01T08:30:00Z,29.2533,-90.6633,1.0,26.9,2 
LUMCON,ioos:station:LUMCON:101:1,2015-10-01T08:45:00Z,29.2533,-90.6633,1.0,26.85,2 
LUMCON,ioos:station:LUMCON:101:1,2015-10-01T09:00:00Z,29.2533,-90.6633,1.0,26.82,2 
LUMCON,ioos:station:LUMCON:101:1,2015-10-01T09:15:00Z,29.2533,-90.6633,1.0,26.76,2 
LUMCON,ioos:station:LUMCON:101:1,2015-10-01T09:30:00Z,29.2533,-90.6633,1.0,26.69,2 
LUMCON,ioos:station:LUMCON:101:1,2015-10-01T09:45:00Z,29.2533,-90.6633,1.0,26.58,2 
LUMCON,ioos:station:LUMCON:101:1,2015-10-01T10:00:00Z,29.2533,-90.6633,1.0,26.54,2 
LUMCON,ioos:station:LUMCON:101:1,2015-10-01T10:15:00Z,29.2533,-90.6633,1.0,26.41,2 
LUMCON,ioos:station:LUMCON:101:1,2015-10-01T10:30:00Z,29.2533,-90.6633,1.0,26.33,2 
LUMCON,ioos:station:LUMCON:101:1,2015-10-01T10:45:00Z,29.2533,-90.6633,1.0,26.28,2 
LUMCON,ioos:station:LUMCON:101:1,2015-10-01T11:00:00Z,29.2533,-90.6633,1.0,26.25,2 
LUMCON,ioos:station:LUMCON:101:1,2015-10-01T11:15:00Z,29.2533,-90.6633,1.0,26.15,2 
LUMCON,ioos:station:LUMCON:101:1,2015-10-01T11:30:00Z,29.2533,-90.6633,1.0,26.11,2 
LUMCON,ioos:station:LUMCON:101:1,2015-10-01T11:45:00Z,29.2533,-90.6633,1.0,26.06,2 
LUMCON,ioos:station:LUMCON:101:1,2015-10-01T12:00:00Z,29.2533,-90.6633,1.0,25.99,2 
LUMCON,ioos:station:LUMCON:101:1,2015-10-01T12:15:00Z,29.2533,-90.6633,1.0,25.95,2 
LUMCON,ioos:station:LUMCON:101:1,2015-10-01T12:30:00Z,29.2533,-90.6633,1.0,25.85,2 
LUMCON,ioos:station:LUMCON:101:1,2015-10-01T12:45:00Z,29.2533,-90.6633,1.0,25.81,2 
LUMCON,ioos:station:LUMCON:101:1,2015-10-01T13:00:00Z,29.2533,-90.6633,1.0,25.76,2 
LUMCON,ioos:station:LUMCON:101:1,2015-10-01T13:15:00Z,29.2533,-90.6633,1.0,25.78,2 
LUMCON,ioos:station:LUMCON:101:1,2015-10-01T13:30:00Z,29.2533,-90.6633,1.0,25.77,2 
LUMCON,ioos:station:LUMCON:101:1,2015-10-01T13:45:00Z,29.2533,-90.6633,1.0,25.79,2 
LUMCON,ioos:station:LUMCON:101:1,2015-10-01T14:00:00Z,29.2533,-90.6633,1.0,25.7,2 
LUMCON,ioos:station:LUMCON:101:1,2015-10-01T14:15:00Z,29.2533,-90.6633,1.0,25.74,2 
LUMCON,ioos:station:LUMCON:101:1,2015-10-01T14:30:00Z,29.2533,-90.6633,1.0,25.73,2 
LUMCON,ioos:station:LUMCON:101:1,2015-10-01T14:45:00Z,29.2533,-90.6633,1.0,25.74,2 
LUMCON,ioos:station:LUMCON:101:1,2015-10-01T15:00:00Z,29.2533,-90.6633,1.0,25.78,2 
LUMCON,ioos:station:LUMCON:101:1,2015-10-01T15:15:00Z,29.2533,-90.6633,1.0,25.85,2 
LUMCON,ioos:station:LUMCON:101:1,2015-10-01T15:30:00Z,29.2533,-90.6633,1.0,25.93,2 
LUMCON,ioos:station:LUMCON:101:1,2015-10-01T15:45:00Z,29.2533,-90.6633,1.0,26.0,2 
LUMCON,ioos:station:LUMCON:101:1,2015-10-01T16:00:00Z,29.2533,-90.6633,1.0,26.08,2 
LUMCON,ioos:station:LUMCON:101:1,2015-10-01T16:15:00Z,29.2533,-90.6633,1.0,26.16,2 
LUMCON,ioos:station:LUMCON:101:1,2015-10-01T16:30:00Z,29.2533,-90.6633,1.0,26.26,2 
LUMCON,ioos:station:LUMCON:101:1,2015-10-01T16:45:00Z,29.2533,-90.6633,1.0,26.37,2 
LUMCON,ioos:station:LUMCON:101:1,2015-10-01T17:00:00Z,29.2533,-90.6633,1.0,26.45,2 
LUMCON,ioos:station:LUMCON:101:1,2015-10-01T17:15:00Z,29.2533,-90.6633,1.0,26.59,2 
LUMCON,ioos:station:LUMCON:101:1,2015-10-01T17:30:00Z,29.2533,-90.6633,1.0,26.68,2 
LUMCON,ioos:station:LUMCON:101:1,2015-10-01T17:45:00Z,29.2533,-90.6633,1.0,26.84,2 
LUMCON,ioos:station:LUMCON:101:1,2015-10-01T18:00:00Z,29.2533,-90.6633,1.0,26.93,2 
LUMCON,ioos:station:LUMCON:101:1,2015-10-01T18:15:00Z,29.2533,-90.6633,1.0,27.08,2 
LUMCON,ioos:station:LUMCON:101:1,2015-10-01T18:30:00Z,29.2533,-90.6633,1.0,27.15,2 
LUMCON,ioos:station:LUMCON:101:1,2015-10-01T18:45:00Z,29.2533,-90.6633,1.0,27.29,2 
LUMCON,ioos:station:LUMCON:101:1,2015-10-01T19:00:00Z,29.2533,-90.6633,1.0,27.28,2 
LUMCON,ioos:station:LUMCON:101:1,2015-10-01T19:15:00Z,29.2533,-90.6633,1.0,27.34,2 
LUMCON,ioos:station:LUMCON:101:1,2015-10-01T19:30:00Z,29.2533,-90.6633,1.0,27.37,2 
LUMCON,ioos:station:LUMCON:101:1,2015-10-01T19:45:00Z,29.2533,-90.6633,1.0,27.51,2 
LUMCON,ioos:station:LUMCON:101:1,2015-10-01T20:00:00Z,29.2533,-90.6633,1.0,27.68,2 
LUMCON,ioos:station:LUMCON:101:1,2015-10-01T20:15:00Z,29.2533,-90.6633,1.0,27.5,2 
LUMCON,ioos:station:LUMCON:101:1,2015-10-01T20:30:00Z,29.2533,-90.6633,1.0,27.36,2 
LUMCON,ioos:station:LUMCON:101:1,2015-10-01T20:45:00Z,29.2533,-90.6633,1.0,27.2,2 
LUMCON,ioos:station:LUMCON:101:1,2015-10-01T21:00:00Z,29.2533,-90.6633,1.0,27.34,2 
LUMCON,ioos:station:LUMCON:101:1,2015-10-01T21:15:00Z,29.2533,-90.6633,1.0,27.41,2 
LUMCON,ioos:station:LUMCON:101:1,2015-10-01T21:30:00Z,29.2533,-90.6633,1.0,27.38,2 
LUMCON,ioos:station:LUMCON:101:1,2015-10-01T21:45:00Z,29.2533,-90.6633,1.0,27.32,2 
LUMCON,ioos:station:LUMCON:101:1,2015-10-01T22:00:00Z,29.2533,-90.6633,1.0,27.25,2 
LUMCON,ioos:station:LUMCON:101:1,2015-10-01T22:15:00Z,29.2533,-90.6633,1.0,27.23,2 
LUMCON,ioos:station:LUMCON:101:1,2015-10-01T22:30:00Z,29.2533,-90.6633,1.0,27.16,2 
LUMCON,ioos:station:LUMCON:101:1,2015-10-01T22:45:00Z,29.2533,-90.6633,1.0,27.13,2 
LUMCON,ioos:station:LUMCON:101:1,2015-10-01T23:00:00Z,29.2533,-90.6633,1.0,27.08,2 
LUMCON,ioos:station:LUMCON:101:1,2015-10-01T23:15:00Z,29.2533,-90.6633,1.0,27.07,2 
LUMCON,ioos:station:LUMCON:101:1,2015-10-01T23:30:00Z,29.2533,-90.6633,1.0,27.03,2 
LUMCON,ioos:station:LUMCON:101:1,2015-10-01T23:45:00Z,29.2533,-90.6633,1.0,26.98,2 
LUMCON,ioos:station:LUMCON:101:1,2015-10-02T05:00:00Z,29.2533,-90.6633,1.0,25.45,2 
LUMCON,ioos:station:LUMCON:101:1,2015-10-02T05:15:00Z,29.2533,-90.6633,1.0,25.27,2 
LUMCON,ioos:station:LUMCON:101:1,2015-10-02T05:30:00Z,29.2533,-90.6633,1.0,25.11,2 
LUMCON,ioos:station:LUMCON:101:1,2015-10-02T05:45:00Z,29.2533,-90.6633,1.0,25.0,2 
LUMCON,ioos:station:LUMCON:101:1,2015-10-02T06:00:00Z,29.2533,-90.6633,1.0,24.91,2 
LUMCON,ioos:station:LUMCON:101:1,2015-10-02T06:15:00Z,29.2533,-90.6633,1.0,24.82,2 
LUMCON,ioos:station:LUMCON:101:1,2015-10-02T06:30:00Z,29.2533,-90.6633,1.0,24.73,2 
LUMCON,ioos:station:LUMCON:101:1,2015-10-02T06:45:00Z,29.2533,-90.6633,1.0,24.63,2 
LUMCON,ioos:station:LUMCON:101:1,2015-10-02T07:00:00Z,29.2533,-90.6633,1.0,24.47,2 
LUMCON,ioos:station:LUMCON:101:1,2015-10-02T07:15:00Z,29.2533,-90.6633,1.0,24.31,2 
LUMCON,ioos:station:LUMCON:101:1,2015-10-02T07:30:00Z,29.2533,-90.6633,1.0,24.21,2 
LUMCON,ioos:station:LUMCON:101:1,2015-10-02T07:45:00Z,29.2533,-90.6633,1.0,24.16,2 
LUMCON,ioos:station:LUMCON:101:1,2015-10-02T08:00:00Z,29.2533,-90.6633,1.0,24.06,2 
LUMCON,ioos:station:LUMCON:101:1,2015-10-02T08:15:00Z,29.2533,-90.6633,1.0,23.99,2 
LUMCON,ioos:station:LUMCON:101:1,2015-10-02T08:30:00Z,29.2533,-90.6633,1.0,24.01,2 
LUMCON,ioos:station:LUMCON:101:1,2015-10-02T08:45:00Z,29.2533,-90.6633,1.0,23.96,2 
LUMCON,ioos:station:LUMCON:101:1,2015-10-02T09:00:00Z,29.2533,-90.6633,1.0,23.91,2 
LUMCON,ioos:station:LUMCON:101:1,2015-10-02T09:15:00Z,29.2533,-90.6633,1.0,23.82,2 
LUMCON,ioos:station:LUMCON:101:1,2015-10-02T09:30:00Z,29.2533,-90.6633,1.0,23.82,2 
LUMCON,ioos:station:LUMCON:101:1,2015-10-02T09:45:00Z,29.2533,-90.6633,1.0,23.84,2 
LUMCON,ioos:station:LUMCON:101:1,2015-10-02T10:00:00Z,29.2533,-90.6633,1.0,23.96,2 
LUMCON,ioos:station:LUMCON:101:1,2015-10-02T10:15:00Z,29.2533,-90.6633,1.0,23.88,2 
LUMCON,ioos:station:LUMCON:101:1,2015-10-02T10:30:00Z,29.2533,-90.6633,1.0,23.84,2 
LUMCON,ioos:station:LUMCON:101:1,2015-10-02T10:45:00Z,29.2533,-90.6633,1.0,23.97,2 
LUMCON,ioos:station:LUMCON:101:1,2015-10-02T11:00:00Z,29.2533,-90.6633,1.0,23.98,2 
LUMCON,ioos:station:LUMCON:101:1,2015-10-02T11:15:00Z,29.2533,-90.6633,1.0,23.73,2 
LUMCON,ioos:station:LUMCON:101:1,2015-10-02T11:30:00Z,29.2533,-90.6633,1.0,23.63,2 
LUMCON,ioos:station:LUMCON:101:1,2015-10-02T11:45:00Z,29.2533,-90.6633,1.0,23.43,2 
LUMCON,ioos:station:LUMCON:101:1,2015-10-02T12:00:00Z,29.2533,-90.6633,1.0,23.21,2 
LUMCON,ioos:station:LUMCON:101:1,2015-10-02T12:15:00Z,29.2533,-90.6633,1.0,22.94,2 
LUMCON,ioos:station:LUMCON:101:1,2015-10-02T12:30:00Z,29.2533,-90.6633,1.0,22.79,2 
LUMCON,ioos:station:LUMCON:101:1,2015-10-02T12:45:00Z,29.2533,-90.6633,1.0,22.63,2 
LUMCON,ioos:station:LUMCON:101:1,2015-10-02T13:00:00Z,29.2533,-90.6633,1.0,22.36,2 
LUMCON,ioos:station:LUMCON:101:1,2015-10-02T13:15:00Z,29.2533,-90.6633,1.0,22.37,2 
LUMCON,ioos:station:LUMCON:101:1,2015-10-02T13:30:00Z,29.2533,-90.6633,1.0,22.29,2 
LUMCON,ioos:station:LUMCON:101:1,2015-10-02T13:45:00Z,29.2533,-90.6633,1.0,22.14,2 
LUMCON,ioos:station:LUMCON:101:1,2015-10-02T14:00:00Z,29.2533,-90.6633,1.0,21.99,2 
LUMCON,ioos:station:LUMCON:101:1,2015-10-02T14:15:00Z,29.2533,-90.6633,1.0,22.04,2 
LUMCON,ioos:station:LUMCON:101:1,2015-10-02T14:30:00Z,29.2533,-90.6633,1.0,22.02,2 
LUMCON,ioos:station:LUMCON:101:1,2015-10-02T14:45:00Z,29.2533,-90.6633,1.0,22.07,2 
LUMCON,ioos:station:LUMCON:101:1,2015-10-02T15:00:00Z,29.2533,-90.6633,1.0,22.03,2 
LUMCON,ioos:station:LUMCON:101:1,2015-10-02T15:15:00Z,29.2533,-90.6633,1.0,22.08,2 
LUMCON,ioos:station:LUMCON:101:1,2015-10-02T15:30:00Z,29.2533,-90.6633,1.0,22.12,2 
LUMCON,ioos:station:LUMCON:101:1,2015-10-02T15:45:00Z,29.2533,-90.6633,1.0,22.12,2 
LUMCON,ioos:station:LUMCON:101:1,2015-10-02T16:00:00Z,29.2533,-90.6633,1.0,22.18,2 
LUMCON,ioos:station:LUMCON:101:1,2015-10-02T16:15:00Z,29.2533,-90.6633,1.0,22.23,2 
LUMCON,ioos:station:LUMCON:101:1,2015-10-02T16:30:00Z,29.2533,-90.6633,1.0,22.27,2 
LUMCON,ioos:station:LUMCON:101:1,2015-10-02T16:45:00Z,29.2533,-90.6633,1.0,22.35,2 
LUMCON,ioos:station:LUMCON:101:1,2015-10-02T17:00:00Z,29.2533,-90.6633,1.0,22.49,2 
LUMCON,ioos:station:LUMCON:101:1,2015-10-02T17:15:00Z,29.2533,-90.6633,1.0,22.57,2 
LUMCON,ioos:station:LUMCON:101:1,2015-10-02T17:30:00Z,29.2533,-90.6633,1.0,22.74,2 
LUMCON,ioos:station:LUMCON:101:1,2015-10-02T17:45:00Z,29.2533,-90.6633,1.0,22.89,2 
LUMCON,ioos:station:LUMCON:101:1,2015-10-02T18:00:00Z,29.2533,-90.6633,1.0,22.99,2 
LUMCON,ioos:station:LUMCON:101:1,2015-10-02T18:15:00Z,29.2533,-90.6633,1.0,23.14,2 
LUMCON,ioos:station:LUMCON:101:1,2015-10-02T18:30:00Z,29.2533,-90.6633,1.0,23.31,2 
LUMCON,ioos:station:LUMCON:101:1,2015-10-02T18:45:00Z,29.2533,-90.6633,1.0,23.44,2 
LUMCON,ioos:station:LUMCON:101:1,2015-10-02T19:00:00Z,29.2533,-90.6633,1.0,23.55,2 
LUMCON,ioos:station:LUMCON:101:1,2015-10-02T19:15:00Z,29.2533,-90.6633,1.0,23.76,2 
LUMCON,ioos:station:LUMCON:101:1,2015-10-02T19:30:00Z,29.2533,-90.6633,1.0,23.69,2 
LUMCON,ioos:station:LUMCON:101:1,2015-10-02T19:45:00Z,29.2533,-90.6633,1.0,23.74,2 
LUMCON,ioos:station:LUMCON:101:1,2015-10-02T20:00:00Z,29.2533,-90.6633,1.0,23.92,2 
LUMCON,ioos:station:LUMCON:101:1,2015-10-02T20:15:00Z,29.2533,-90.6633,1.0,24.27,2 
LUMCON,ioos:station:LUMCON:101:1,2015-10-02T20:30:00Z,29.2533,-90.6633,1.0,24.27,2 
LUMCON,ioos:station:LUMCON:101:1,2015-10-02T20:45:00Z,29.2533,-90.6633,1.0,24.29,2 
LUMCON,ioos:station:LUMCON:101:1,2015-10-02T21:00:00Z,29.2533,-90.6633,1.0,24.29,2 
LUMCON,ioos:station:LUMCON:101:1,2015-10-02T21:15:00Z,29.2533,-90.6633,1.0,24.24,2 
LUMCON,ioos:station:LUMCON:101:1,2015-10-02T21:30:00Z,29.2533,-90.6633,1.0,24.27,2 
LUMCON,ioos:station:LUMCON:101:1,2015-10-02T21:45:00Z,29.2533,-90.6633,1.0,24.24,2 
LUMCON,ioos:station:LUMCON:101:1,2015-10-02T22:00:00Z,29.2533,-90.6633,1.0,24.3,2 
LUMCON,ioos:station:LUMCON:101:1,2015-10-02T22:15:00Z,29.2533,-90.6633,1.0,24.41,2 
LUMCON,ioos:station:LUMCON:101:1,2015-10-02T22:30:00Z,29.2533,-90.6633,1.0,24.55,2 
LUMCON,ioos:station:LUMCON:101:1,2015-10-02T22:45:00Z,29.2533,-90.6633,1.0,24.55,2 
LUMCON,ioos:station:LUMCON:101:1,2015-10-02T23:00:00Z,29.2533,-90.6633,1.0,24.55,2 
LUMCON,ioos:station:LUMCON:101:1,2015-10-02T23:15:00Z,29.2533,-90.6633,1.0,24.54,2 
LUMCON,ioos:station:LUMCON:101:1,2015-10-02T23:30:00Z,29.2533,-90.6633,1.0,24.56,2 
LUMCON,ioos:station:LUMCON:101:1,2015-10-02T23:45:00Z,29.2533,-90.6633,1.0,24.6,2 
LUMCON,ioos:station:LUMCON:101:1,2015-10-03T05:00:00Z,29.2533,-90.6633,1.0,23.95,2 
LUMCON,ioos:station:LUMCON:101:1,2015-10-03T05:15:00Z,29.2533,-90.6633,1.0,23.95,2 
LUMCON,ioos:station:LUMCON:101:1,2015-10-03T05:30:00Z,29.2533,-90.6633,1.0,23.93,2 
LUMCON,ioos:station:LUMCON:101:1,2015-10-03T05:45:00Z,29.2533,-90.6633,1.0,23.88,2 
LUMCON,ioos:station:LUMCON:101:1,2015-10-03T06:00:00Z,29.2533,-90.6633,1.0,23.83,2 
LUMCON,ioos:station:LUMCON:101:1,2015-10-03T06:15:00Z,29.2533,-90.6633,1.0,23.8,2 
LUMCON,ioos:station:LUMCON:101:1,2015-10-03T06:30:00Z,29.2533,-90.6633,1.0,23.79,2 
LUMCON,ioos:station:LUMCON:101:1,2015-10-03T06:45:00Z,29.2533,-90.6633,1.0,23.75,2 
LUMCON,ioos:station:LUMCON:101:1,2015-10-03T07:00:00Z,29.2533,-90.6633,1.0,23.7,2 
LUMCON,ioos:station:LUMCON:101:1,2015-10-03T07:15:00Z,29.2533,-90.6633,1.0,23.69,2 
LUMCON,ioos:station:LUMCON:101:1,2015-10-03T07:30:00Z,29.2533,-90.6633,1.0,23.67,2 
LUMCON,ioos:station:LUMCON:101:1,2015-10-03T07:45:00Z,29.2533,-90.6633,1.0,23.61,2 
LUMCON,ioos:station:LUMCON:101:1,2015-10-03T08:00:00Z,29.2533,-90.6633,1.0,23.58,2 
LUMCON,ioos:station:LUMCON:101:1,2015-10-03T08:15:00Z,29.2533,-90.6633,1.0,23.52,2 
LUMCON,ioos:station:LUMCON:101:1,2015-10-03T08:30:00Z,29.2533,-90.6633,1.0,23.46,2 
LUMCON,ioos:station:LUMCON:101:1,2015-10-03T08:45:00Z,29.2533,-90.6633,1.0,23.44,2 
LUMCON,ioos:station:LUMCON:101:1,2015-10-03T09:00:00Z,29.2533,-90.6633,1.0,23.39,2 
LUMCON,ioos:station:LUMCON:101:1,2015-10-03T09:15:00Z,29.2533,-90.6633,1.0,23.35,2 
LUMCON,ioos:station:LUMCON:101:1,2015-10-03T09:30:00Z,29.2533,-90.6633,1.0,23.3,2 
LUMCON,ioos:station:LUMCON:101:1,2015-10-03T09:45:00Z,29.2533,-90.6633,1.0,23.26,2 
LUMCON,ioos:station:LUMCON:101:1,2015-10-03T10:00:00Z,29.2533,-90.6633,1.0,23.27,2 
LUMCON,ioos:station:LUMCON:101:1,2015-10-03T10:15:00Z,29.2533,-90.6633,1.0,23.27,2 
LUMCON,ioos:station:LUMCON:101:1,2015-10-03T10:30:00Z,29.2533,-90.6633,1.0,23.25,2 
LUMCON,ioos:station:LUMCON:101:1,2015-10-03T10:45:00Z,29.2533,-90.6633,1.0,23.27,2 
LUMCON,ioos:station:LUMCON:101:1,2015-10-03T11:00:00Z,29.2533,-90.6633,1.0,23.28,2 
LUMCON,ioos:station:LUMCON:101:1,2015-10-03T11:15:00Z,29.2533,-90.6633,1.0,23.06,2 
LUMCON,ioos:station:LUMCON:101:1,2015-10-03T11:30:00Z,29.2533,-90.6633,1.0,23.07,2 
LUMCON,ioos:station:LUMCON:101:1,2015-10-03T11:45:00Z,29.2533,-90.6633,1.0,22.98,2 
LUMCON,ioos:station:LUMCON:101:1,2015-10-03T12:00:00Z,29.2533,-90.6633,1.0,22.92,2 
LUMCON,ioos:station:LUMCON:101:1,2015-10-03T12:15:00Z,29.2533,-90.6633,1.0,22.85,2 
LUMCON,ioos:station:LUMCON:101:1,2015-10-03T12:30:00Z,29.2533,-90.6633,1.0,22.75,2 
LUMCON,ioos:station:LUMCON:101:1,2015-10-03T12:45:00Z,29.2533,-90.6633,1.0,22.5,2 
LUMCON,ioos:station:LUMCON:101:1,2015-10-03T13:00:00Z,29.2533,-90.6633,1.0,22.43,2 
LUMCON,ioos:station:LUMCON:101:1,2015-10-03T13:15:00Z,29.2533,-90.6633,1.0,22.37,2 
LUMCON,ioos:station:LUMCON:101:1,2015-10-03T13:30:00Z,29.2533,-90.6633,1.0,22.29,2 
LUMCON,ioos:station:LUMCON:101:1,2015-10-03T13:45:00Z,29.2533,-90.6633,1.0,22.22,2 
LUMCON,ioos:station:LUMCON:101:1,2015-10-03T14:00:00Z,29.2533,-90.6633,1.0,22.13,2 
LUMCON,ioos:station:LUMCON:101:1,2015-10-03T14:15:00Z,29.2533,-90.6633,1.0,22.1,2 
LUMCON,ioos:station:LUMCON:101:1,2015-10-03T14:30:00Z,29.2533,-90.6633,1.0,22.03,2 
LUMCON,ioos:station:LUMCON:101:1,2015-10-03T14:45:00Z,29.2533,-90.6633,1.0,21.93,2 
LUMCON,ioos:station:LUMCON:101:1,2015-10-03T15:00:00Z,29.2533,-90.6633,1.0,21.94,2 
LUMCON,ioos:station:LUMCON:101:1,2015-10-03T15:15:00Z,29.2533,-90.6633,1.0,21.87,2 
LUMCON,ioos:station:LUMCON:101:1,2015-10-03T15:30:00Z,29.2533,-90.6633,1.0,21.83,2 
LUMCON,ioos:station:LUMCON:101:1,2015-10-03T15:45:00Z,29.2533,-90.6633,1.0,21.75,2 
LUMCON,ioos:station:LUMCON:101:1,2015-10-03T16:00:00Z,29.2533,-90.6633,1.0,21.72,2 
LUMCON,ioos:station:LUMCON:101:1,2015-10-03T17:15:00Z,29.2533,-90.6633,1.0,21.7,2 
LUMCON,ioos:station:LUMCON:101:1,2015-10-03T17:30:00Z,29.2533,-90.6633,1.0,21.71,2 
LUMCON,ioos:station:LUMCON:101:1,2015-10-03T18:45:00Z,29.2533,-90.6633,1.0,21.81,2 
LUMCON,ioos:station:LUMCON:101:1,2015-10-03T19:00:00Z,29.2533,-90.6633,1.0,21.89,2 
LUMCON,ioos:station:LUMCON:101:1,2015-10-03T19:15:00Z,29.2533,-90.6633,1.0,21.99,2 
LUMCON,ioos:station:LUMCON:101:1,2015-10-03T19:30:00Z,29.2533,-90.6633,1.0,22.07,2 
LUMCON,ioos:station:LUMCON:101:1,2015-10-03T19:45:00Z,29.2533,-90.6633,1.0,22.2,2 
LUMCON,ioos:station:LUMCON:101:1,2015-10-03T20:00:00Z,29.2533,-90.6633,1.0,22.26,2 
LUMCON,ioos:station:LUMCON:101:1,2015-10-03T20:15:00Z,29.2533,-90.6633,1.0,22.38,2 
LUMCON,ioos:station:LUMCON:101:1,2015-10-03T20:30:00Z,29.2533,-90.6633,1.0,22.46,2 
LUMCON,ioos:station:LUMCON:101:1,2015-10-03T20:45:00Z,29.2533,-90.6633,1.0,22.57,2 
LUMCON,ioos:station:LUMCON:101:1,2015-10-03T21:00:00Z,29.2533,-90.6633,1.0,22.56,2 
LUMCON,ioos:station:LUMCON:101:1,2015-10-03T21:15:00Z,29.2533,-90.6633,1.0,22.58,2 
LUMCON,ioos:station:LUMCON:101:1,2015-10-03T21:30:00Z,29.2533,-90.6633,1.0,22.59,2 
LUMCON,ioos:station:LUMCON:101:1,2015-10-03T21:45:00Z,29.2533,-90.6633,1.0,22.58,2 
LUMCON,ioos:station:LUMCON:101:1,2015-10-03T22:00:00Z,29.2533,-90.6633,1.0,22.55,2 
LUMCON,ioos:station:LUMCON:101:1,2015-10-03T22:15:00Z,29.2533,-90.6633,1.0,22.57,2 
LUMCON,ioos:station:LUMCON:101:1,2015-10-03T22:30:00Z,29.2533,-90.6633,1.0,22.55,2 
LUMCON,ioos:station:LUMCON:101:1,2015-10-03T22:45:00Z,29.2533,-90.6633,1.0,22.53,2 
LUMCON,ioos:station:LUMCON:101:1,2015-10-03T23:00:00Z,29.2533,-90.6633,1.0,22.53,2 
LUMCON,ioos:station:LUMCON:101:1,2015-10-03T23:15:00Z,29.2533,-90.6633,1.0,22.48,2 
LUMCON,ioos:station:LUMCON:101:1,2015-10-03T23:30:00Z,29.2533,-90.6633,1.0,22.64,2 
LUMCON,ioos:station:LUMCON:101:1,2015-10-03T23:45:00Z,29.2533,-90.6633,1.0,22.61,2 
LUMCON,ioos:station:LUMCON:101:1,2015-10-04T05:00:00Z,29.2533,-90.6633,1.0,22.2,2 
LUMCON,ioos:station:LUMCON:101:1,2015-10-04T05:15:00Z,29.2533,-90.6633,1.0,22.16,2 
LUMCON,ioos:station:LUMCON:101:1,2015-10-04T05:30:00Z,29.2533,-90.6633,1.0,22.13,2 
LUMCON,ioos:station:LUMCON:101:1,2015-10-04T05:45:00Z,29.2533,-90.6633,1.0,22.12,2 
LUMCON,ioos:station:LUMCON:101:1,2015-10-04T06:00:00Z,29.2533,-90.6633,1.0,22.07,2 
LUMCON,ioos:station:LUMCON:101:1,2015-10-04T06:15:00Z,29.2533,-90.6633,1.0,22.06,2 
LUMCON,ioos:station:LUMCON:101:1,2015-10-04T06:30:00Z,29.2533,-90.6633,1.0,22.06,2 
LUMCON,ioos:station:LUMCON:101:1,2015-10-04T06:45:00Z,29.2533,-90.6633,1.0,21.99,2 
LUMCON,ioos:station:LUMCON:101:1,2015-10-04T07:00:00Z,29.2533,-90.6633,1.0,21.98,2 
LUMCON,ioos:station:LUMCON:101:1,2015-10-04T07:15:00Z,29.2533,-90.6633,1.0,21.92,2 
LUMCON,ioos:station:LUMCON:101:1,2015-10-04T07:30:00Z,29.2533,-90.6633,1.0,21.89,2 
LUMCON,ioos:station:LUMCON:101:1,2015-10-04T07:45:00Z,29.2533,-90.6633,1.0,21.87,2 
LUMCON,ioos:station:LUMCON:101:1,2015-10-04T08:00:00Z,29.2533,-90.6633,1.0,21.87,2 
LUMCON,ioos:station:LUMCON:101:1,2015-10-04T08:15:00Z,29.2533,-90.6633,1.0,21.8,2 
LUMCON,ioos:station:LUMCON:101:1,2015-10-04T08:30:00Z,29.2533,-90.6633,1.0,21.73,2 
LUMCON,ioos:station:LUMCON:101:1,2015-10-04T08:45:00Z,29.2533,-90.6633,1.0,21.7,2 
LUMCON,ioos:station:LUMCON:101:1,2015-10-04T09:00:00Z,29.2533,-90.6633,1.0,21.68,2 
LUMCON,ioos:station:LUMCON:101:1,2015-10-04T09:15:00Z,29.2533,-90.6633,1.0,21.57,2 
LUMCON,ioos:station:LUMCON:101:1,2015-10-04T09:30:00Z,29.2533,-90.6633,1.0,21.55,2 
LUMCON,ioos:station:LUMCON:101:1,2015-10-04T09:45:00Z,29.2533,-90.6633,1.0,21.48,2 
LUMCON,ioos:station:LUMCON:101:1,2015-10-04T10:00:00Z,29.2533,-90.6633,1.0,21.38,2 
LUMCON,ioos:station:LUMCON:101:1,2015-10-04T10:15:00Z,29.2533,-90.6633,1.0,21.36,2 
LUMCON,ioos:station:LUMCON:101:1,2015-10-04T10:30:00Z,29.2533,-90.6633,1.0,21.35,2 
LUMCON,ioos:station:LUMCON:101:1,2015-10-04T10:45:00Z,29.2533,-90.6633,1.0,21.3,2 
LUMCON,ioos:station:LUMCON:101:1,2015-10-04T11:00:00Z,29.2533,-90.6633,1.0,21.21,2 
LUMCON,ioos:station:LUMCON:101:1,2015-10-04T11:15:00Z,29.2533,-90.6633,1.0,21.14,2 
LUMCON,ioos:station:LUMCON:101:1,2015-10-04T11:30:00Z,29.2533,-90.6633,1.0,21.13,2 
LUMCON,ioos:station:LUMCON:101:1,2015-10-04T11:45:00Z,29.2533,-90.6633,1.0,21.12,2 
LUMCON,ioos:station:LUMCON:101:1,2015-10-04T12:00:00Z,29.2533,-90.6633,1.0,21.07,2 
LUMCON,ioos:station:LUMCON:101:1,2015-10-04T12:15:00Z,29.2533,-90.6633,1.0,21.07,2 
LUMCON,ioos:station:LUMCON:101:1,2015-10-04T12:30:00Z,29.2533,-90.6633,1.0,21.03,2 
LUMCON,ioos:station:LUMCON:101:1,2015-10-04T12:45:00Z,29.2533,-90.6633,1.0,20.92,2 
LUMCON,ioos:station:LUMCON:101:1,2015-10-04T13:00:00Z,29.2533,-90.6633,1.0,20.97,2 
LUMCON,ioos:station:LUMCON:101:1,2015-10-04T13:15:00Z,29.2533,-90.6633,1.0,20.97,2 
LUMCON,ioos:station:LUMCON:101:1,2015-10-04T13:30:00Z,29.2533,-90.6633,1.0,20.9,2 
LUMCON,ioos:station:LUMCON:101:1,2015-10-04T13:45:00Z,29.2533,-90.6633,1.0,20.81,2 
LUMCON,ioos:station:LUMCON:101:1,2015-10-04T14:00:00Z,29.2533,-90.6633,1.0,20.68,2 
LUMCON,ioos:station:LUMCON:101:1,2015-10-04T14:15:00Z,29.2533,-90.6633,1.0,20.5,2 
LUMCON,ioos:station:LUMCON:101:1,2015-10-04T14:30:00Z,29.2533,-90.6633,1.0,20.55,2 
LUMCON,ioos:station:LUMCON:101:1,2015-10-04T14:45:00Z,29.2533,-90.6633,1.0,20.48,2 
LUMCON,ioos:station:LUMCON:101:1,2015-10-04T15:00:00Z,29.2533,-90.6633,1.0,20.37,2 
LUMCON,ioos:station:LUMCON:101:1,2015-10-04T15:15:00Z,29.2533,-90.6633,1.0,20.32,2 
LUMCON,ioos:station:LUMCON:101:1,2015-10-04T15:30:00Z,29.2533,-90.6633,1.0,20.41,2 
LUMCON,ioos:station:LUMCON:101:1,2015-10-04T15:45:00Z,29.2533,-90.6633,1.0,20.42,2 
LUMCON,ioos:station:LUMCON:101:1,2015-10-04T16:00:00Z,29.2533,-90.6633,1.0,20.42,2 
LUMCON,ioos:station:LUMCON:101:1,2015-10-04T16:15:00Z,29.2533,-90.6633,1.0,20.38,2 
LUMCON,ioos:station:LUMCON:101:1,2015-10-04T16:30:00Z,29.2533,-90.6633,1.0,20.38,2 
LUMCON,ioos:station:LUMCON:101:1,2015-10-04T16:45:00Z,29.2533,-90.6633,1.0,20.38,2 
LUMCON,ioos:station:LUMCON:101:1,2015-10-04T17:00:00Z,29.2533,-90.6633,1.0,20.35,2 
LUMCON,ioos:station:LUMCON:101:1,2015-10-04T17:15:00Z,29.2533,-90.6633,1.0,20.28,2 
LUMCON,ioos:station:LUMCON:101:1,2015-10-04T17:30:00Z,29.2533,-90.6633,1.0,20.2,2 
LUMCON,ioos:station:LUMCON:101:1,2015-10-04T17:45:00Z,29.2533,-90.6633,1.0,20.12,2 
LUMCON,ioos:station:LUMCON:101:1,2015-10-04T18:00:00Z,29.2533,-90.6633,1.0,20.06,2 
LUMCON,ioos:station:LUMCON:101:1,2015-10-04T18:15:00Z,29.2533,-90.6633,1.0,19.98,2 
LUMCON,ioos:station:LUMCON:101:1,2015-10-04T18:30:00Z,29.2533,-90.6633,1.0,19.95,2 
LUMCON,ioos:station:LUMCON:101:1,2015-10-04T18:45:00Z,29.2533,-90.6633,1.0,19.9,2 
LUMCON,ioos:station:LUMCON:101:1,2015-10-04T19:00:00Z,29.2533,-90.6633,1.0,19.86,2 
LUMCON,ioos:station:LUMCON:101:1,2015-10-04T19:15:00Z,29.2533,-90.6633,1.0,19.84,2 
LUMCON,ioos:station:LUMCON:101:1,2015-10-04T19:30:00Z,29.2533,-90.6633,1.0,19.83,2 
LUMCON,ioos:station:LUMCON:101:1,2015-10-04T19:45:00Z,29.2533,-90.6633,1.0,19.82,2 
LUMCON,ioos:station:LUMCON:101:1,2015-10-04T20:00:00Z,29.2533,-90.6633,1.0,19.81,2 
LUMCON,ioos:station:LUMCON:101:1,2015-10-04T20:15:00Z,29.2533,-90.6633,1.0,19.81,2 
LUMCON,ioos:station:LUMCON:101:1,2015-10-04T20:30:00Z,29.2533,-90.6633,1.0,19.82,2 
LUMCON,ioos:station:LUMCON:101:1,2015-10-04T20:45:00Z,29.2533,-90.6633,1.0,19.88,2 
LUMCON,ioos:station:LUMCON:101:1,2015-10-04T21:00:00Z,29.2533,-90.6633,1.0,19.94,2 